Location: Unspecified
(22.6800°N, 112.2000°E)
Time: 01:30:04
(UTC+08:00)

Courier 1B Rocket - Pass Details

Date: 05 August 2021
Orbit: 920 x 1202 km, 28.3° (Epoch: 17 September)

Event Time Altitude Azimuth Distance (km) Brightness Sun altitude
Exits shadow 02:04:15 14° 70° (ENE) 2,420 7.4 -45.0°
Drops below altitude 10° 02:05:07 10° 72° (ENE) 2,706 7.7 -44.9°
Sets 02:07:45 0° 77° (ENE) 3,621 8.4 -44.5°
